Time,TemperatureF,DewpointF,PressureIn,WindDirection,WindDirectionDegrees,WindSpeedMPH,WindSpeedGustMPH,Humidity,HourlyPrecipIn,Conditions,Clouds,dailyrainin,SoftwareType,DateUTC
2013-01-14 00:04:00,-999.0,-99.9,30.16,SSW,211,4.0,5.0,-999,-99.99,,,-99.99,,2013-01-14 05:04:00,
2013-01-14 00:12:00,-999.0,-99.9,30.16,SSW,209,7.0,9.0,-999,-99.99,,,-99.99,,2013-01-14 05:12:00,
2013-01-14 00:22:00,-999.0,-99.9,30.16,SW,220,4.0,7.0,-999,-99.99,,,-99.99,,2013-01-14 05:22:00,
2013-01-14 00:33:00,-999.0,-99.9,30.15,SSW,208,5.0,7.0,-999,-99.99,,,-99.99,,2013-01-14 05:33:00,
2013-01-14 00:43:00,-999.0,-99.9,30.15,SW,217,5.0,7.0,-999,-99.99,,,-99.99,,2013-01-14 05:43:00,
2013-01-14 00:53:00,-999.0,-99.9,30.16,WSW,247,4.0,7.0,-999,-99.99,,,-99.99,,2013-01-14 05:53:00,
2013-01-14 01:03:00,-999.0,-99.9,30.16,WSW,257,4.0,7.0,-999,-99.99,,,-99.99,,2013-01-14 06:03:00,
2013-01-14 01:12:00,-999.0,-99.9,30.15,WSW,241,3.0,6.0,-999,-99.99,,,-99.99,,2013-01-14 06:12:00,
2013-01-14 01:23:00,-999.0,-99.9,30.15,WSW,241,4.0,6.0,-999,-99.99,,,-99.99,,2013-01-14 06:23:00,
2013-01-14 01:33:00,-999.0,-99.9,30.15,WSW,237,3.0,6.0,-999,-99.99,,,-99.99,,2013-01-14 06:33:00,
2013-01-14 01:43:00,-999.0,-99.9,30.16,WSW,248,5.0,7.0,-999,-99.99,,,-99.99,,2013-01-14 06:43:00,
2013-01-14 01:53:00,-999.0,-99.9,30.15,WSW,250,5.0,6.0,-999,-99.99,,,-99.99,,2013-01-14 06:53:00,
2013-01-14 02:02:00,-999.0,-99.9,30.15,WSW,239,3.0,8.0,-999,-99.99,,,-99.99,,2013-01-14 07:02:00,
2013-01-14 02:12:00,-999.0,-99.9,30.16,West,264,2.0,6.0,-999,-99.99,,,-99.99,,2013-01-14 07:12:00,
2013-01-14 02:23:00,-999.0,-99.9,30.17,West,264,2.0,6.0,-999,-99.99,,,-99.99,,2013-01-14 07:23:00,
2013-01-14 02:33:00,-999.0,-99.9,30.17,WSW,257,3.0,5.0,-999,-99.99,,,-99.99,,2013-01-14 07:33:00,
2013-01-14 02:43:00,-999.0,-99.9,30.17,WSW,248,5.0,8.0,-999,-99.99,,,-99.99,,2013-01-14 07:43:00,
2013-01-14 02:53:00,-999.0,-99.9,30.18,WSW,246,4.0,7.0,-999,-99.99,,,-99.99,,2013-01-14 07:53:00,
2013-01-14 03:02:00,-999.0,-99.9,30.17,WSW,242,3.0,6.0,-999,-99.99,,,-99.99,,2013-01-14 08:02:00,
2013-01-14 03:12:00,-999.0,-99.9,30.18,WSW,242,6.0,7.0,-999,-99.99,,,-99.99,,2013-01-14 08:12:00,
2013-01-14 03:22:00,-999.0,-99.9,30.18,WSW,247,4.0,6.0,-999,-99.99,,,-99.99,,2013-01-14 08:22:00,
2013-01-14 03:33:00,-999.0,-99.9,30.17,SW,234,2.0,6.0,-999,-99.99,,,-99.99,,2013-01-14 08:33:00,
2013-01-14 03:43:00,-999.0,-99.9,30.17,SW,225,2.0,5.0,-999,-99.99,,,-99.99,,2013-01-14 08:43:00,
2013-01-14 03:53:00,-999.0,-99.9,30.16,SSW,213,4.0,7.0,-999,-99.99,,,-99.99,,2013-01-14 08:53:00,
2013-01-14 04:03:00,-999.0,-99.9,30.16,SSW,205,6.0,8.0,-999,-99.99,,,-99.99,,2013-01-14 09:03:00,
2013-01-14 04:12:00,-999.0,-99.9,30.15,SSW,202,6.0,7.0,-999,-99.99,,,-99.99,,2013-01-14 09:12:00,
2013-01-14 04:23:00,-999.0,-99.9,30.14,SSW,192,7.0,10.0,-999,-99.99,,,-99.99,,2013-01-14 09:23:00,
2013-01-14 04:34:00,-999.0,-99.9,30.13,SSW,194,6.0,8.0,-999,-99.99,,,-99.99,,2013-01-14 09:34:00,
2013-01-14 04:43:00,-999.0,-99.9,30.13,SW,219,6.0,9.0,-999,-99.99,,,-99.99,,2013-01-14 09:43:00,
2013-01-14 04:53:00,-999.0,-99.9,30.13,SW,219,4.0,9.0,-999,-99.99,,,-99.99,,2013-01-14 09:53:00,
2013-01-14 05:03:00,-999.0,-99.9,30.13,SW,223,3.0,7.0,-999,-99.99,,,-99.99,,2013-01-14 10:03:00,
2013-01-14 05:12:00,-999.0,-99.9,30.13,SW,225,3.0,5.0,-999,-99.99,,,-99.99,,2013-01-14 10:12:00,
2013-01-14 05:23:00,-999.0,-99.9,30.13,SW,219,4.0,6.0,-999,-99.99,,,-99.99,,2013-01-14 10:23:00,
2013-01-14 05:33:00,-999.0,-99.9,30.12,SSW,210,5.0,7.0,-999,-99.99,,,-99.99,,2013-01-14 10:33:00,
2013-01-14 05:43:00,-999.0,-99.9,30.12,SW,214,5.0,6.0,-999,-99.99,,,-99.99,,2013-01-14 10:43:00,
2013-01-14 05:53:00,-999.0,-99.9,30.12,South,186,7.0,10.0,-999,-99.99,,,-99.99,,2013-01-14 10:53:00,
2013-01-14 06:02:00,-999.0,-99.9,30.12,South,180,7.0,8.0,-999,-99.99,,,-99.99,,2013-01-14 11:02:00,
2013-01-14 06:12:00,-999.0,-99.9,30.13,South,188,5.0,6.0,-999,-99.99,,,-99.99,,2013-01-14 11:12:00,
2013-01-14 06:23:00,-999.0,-99.9,30.12,South,177,7.0,7.0,-999,-99.99,,,-99.99,,2013-01-14 11:23:00,
2013-01-14 06:33:00,-999.0,-99.9,30.13,SSW,198,5.0,8.0,-999,-99.99,,,-99.99,,2013-01-14 11:33:00,
2013-01-14 06:43:00,-999.0,-99.9,30.14,SW,216,4.0,7.0,-999,-99.99,,,-99.99,,2013-01-14 11:43:00,
2013-01-14 06:53:00,-999.0,-99.9,30.15,SW,219,4.0,7.0,-999,-99.99,,,-99.99,,2013-01-14 11:53:00,
2013-01-14 07:03:00,-999.0,-99.9,30.15,WSW,240,3.0,5.0,-999,-99.99,,,-99.99,,2013-01-14 12:03:00,
2013-01-14 07:12:00,-999.0,-99.9,30.15,West,273,2.0,5.0,-999,-99.99,,,-99.99,,2013-01-14 12:12:00,
2013-01-14 07:23:00,-999.0,-99.9,30.16,WNW,295,5.0,8.0,-999,-99.99,,,-99.99,,2013-01-14 12:23:00,
2013-01-14 07:33:00,-999.0,-99.9,30.16,WNW,285,5.0,8.0,-999,-99.99,,,-99.99,,2013-01-14 12:33:00,
2013-01-14 07:43:00,-999.0,-99.9,30.17,WNW,287,3.0,5.0,-999,-99.99,,,-99.99,,2013-01-14 12:43:00,
2013-01-14 07:53:00,-999.0,-99.9,30.17,West,271,2.0,5.0,-999,-99.99,,,-99.99,,2013-01-14 12:53:00,
2013-01-14 08:03:00,-999.0,-99.9,30.17,West,269,2.0,5.0,-999,-99.99,,,-99.99,,2013-01-14 13:03:00,
2013-01-14 08:13:00,-999.0,-99.9,30.18,WSW,249,2.0,5.0,-999,-99.99,,,-99.99,,2013-01-14 13:13:00,
2013-01-14 08:23:00,-999.0,-99.9,30.18,West,263,2.0,6.0,-999,-99.99,,,-99.99,,2013-01-14 13:23:00,
2013-01-14 08:34:00,61.0,-99.9,30.18,North,-999,-999.0,-999.0,-999,-99.99,,,-99.99,,2013-01-14 13:34:00,
2013-01-14 08:43:00,62.0,-99.9,30.19,WNW,285,2.0,4.0,-999,-99.99,,,-99.99,,2013-01-14 13:43:00,
2013-01-14 08:53:00,-999.0,-99.9,30.19,WSW,241,2.0,3.0,-999,-99.99,,,-99.99,,2013-01-14 13:53:00,
2013-01-14 09:03:00,-999.0,-99.9,30.19,WSW,251,3.0,4.0,-999,-99.99,,,-99.99,,2013-01-14 14:03:00,
2013-01-14 09:13:00,62.0,-99.9,30.20,North,-999,-999.0,-999.0,-999,-99.99,,,-99.99,,2013-01-14 14:13:00,
2013-01-14 09:23:00,-999.0,-99.9,30.20,WNW,286,2.0,5.0,-999,-99.99,,,-99.99,,2013-01-14 14:23:00,
2013-01-14 09:33:00,-999.0,-99.9,30.20,WSW,257,2.0,4.0,-999,-99.99,,,-99.99,,2013-01-14 14:33:00,
2013-01-14 09:43:00,-999.0,-99.9,30.20,WSW,257,2.0,4.0,-999,-99.99,,,-99.99,,2013-01-14 14:43:00,
2013-01-14 10:12:00,-999.0,-99.9,30.20,SSW,198,4.0,5.0,-999,-99.99,,,-99.99,,2013-01-14 15:12:00,
2013-01-14 10:24:00,65.0,-99.9,30.20,North,-999,-999.0,-999.0,-999,-99.99,,,-99.99,,2013-01-14 15:24:00,
2013-01-14 10:34:00,-999.0,-99.9,30.20,SW,230,3.0,5.0,-999,-99.99,,,-99.99,,2013-01-14 15:34:00,
2013-01-14 10:43:00,-999.0,-99.9,30.20,SSW,194,6.0,7.0,-999,-99.99,,,-99.99,,2013-01-14 15:43:00,
2013-01-14 10:53:00,-999.0,-99.9,30.19,South,189,5.0,6.0,-999,-99.99,,,-99.99,,2013-01-14 15:53:00,
2013-01-14 11:03:00,-999.0,-99.9,30.19,South,183,6.0,6.0,-999,-99.99,,,-99.99,,2013-01-14 16:03:00,
2013-01-14 11:23:00,66.0,-99.9,30.19,North,-999,-999.0,-999.0,-999,-99.99,,,-99.99,,2013-01-14 16:23:00,
2013-01-14 11:33:00,-999.0,-99.9,30.18,WSW,247,5.0,10.0,-999,-99.99,,,-99.99,,2013-01-14 16:33:00,
2013-01-14 11:43:00,67.0,-99.9,30.18,WSW,257,4.0,9.0,-999,-99.99,,,-99.99,,2013-01-14 16:43:00,
2013-01-14 11:53:00,68.0,-99.9,30.18,North,-999,-999.0,-999.0,-999,-99.99,,,-99.99,,2013-01-14 16:53:00,
2013-01-14 12:03:00,-999.0,-99.9,30.18,SW,236,3.0,8.0,-999,-99.99,,,-99.99,,2013-01-14 17:03:00,
2013-01-14 12:12:00,-999.0,-99.9,30.17,WSW,238,4.0,6.0,-999,-99.99,,,-99.99,,2013-01-14 17:12:00,
2013-01-14 12:23:00,-999.0,-99.9,30.17,WSW,242,4.0,9.0,-999,-99.99,,,-99.99,,2013-01-14 17:23:00,
2013-01-14 12:34:00,68.0,-99.9,30.16,North,-999,-999.0,-999.0,-999,-99.99,,,-99.99,,2013-01-14 17:34:00,
2013-01-14 12:44:00,-999.0,-99.9,30.16,WSW,248,4.0,10.0,-999,-99.99,,,-99.99,,2013-01-14 17:44:00,
2013-01-14 12:54:00,-999.0,-99.9,30.16,WSW,254,5.0,7.0,-999,-99.99,,,-99.99,,2013-01-14 17:54:00,
2013-01-14 13:03:00,69.0,-99.9,30.15,North,-999,-999.0,-999.0,-999,-99.99,,,-99.99,,2013-01-14 18:03:00,
2013-01-14 13:13:00,-999.0,-99.9,30.15,West,259,3.0,7.0,-999,-99.99,,,-99.99,,2013-01-14 18:13:00,
2013-01-14 13:23:00,-999.0,-99.9,30.14,WSW,246,5.0,8.0,-999,-99.99,,,-99.99,,2013-01-14 18:23:00,
2013-01-14 13:33:00,68.0,-99.9,30.14,North,-999,-999.0,-999.0,-999,-99.99,,,-99.99,,2013-01-14 18:33:00,
2013-01-14 13:43:00,68.0,-99.9,30.14,North,-999,-999.0,-999.0,-999,-99.99,,,-99.99,,2013-01-14 18:43:00,
2013-01-14 13:53:00,65.0,-99.9,30.14,North,-999,-999.0,-999.0,-999,-99.99,,,-99.99,,2013-01-14 18:53:00,
2013-01-14 14:03:00,67.0,-99.9,30.14,North,-999,-999.0,-999.0,-999,-99.99,,,-99.99,,2013-01-14 19:03:00,
2013-01-14 14:13:00,65.0,-99.9,30.14,North,-999,-999.0,-999.0,-999,-99.99,,,-99.99,,2013-01-14 19:13:00,
2013-01-14 14:22:00,63.0,-99.9,30.14,North,-999,-999.0,-999.0,-999,-99.99,,,-99.99,,2013-01-14 19:22:00,
2013-01-14 14:33:00,-999.0,-99.9,30.14,South,191,6.0,7.0,-999,-99.99,,,-99.99,,2013-01-14 19:33:00,
2013-01-14 14:53:00,-999.0,-99.9,30.14,South,177,7.0,9.0,-999,-99.99,,,-99.99,,2013-01-14 19:53:00,
2013-01-14 15:13:00,-999.0,-99.9,30.15,South,187,6.0,10.0,-999,-99.99,,,-99.99,,2013-01-14 20:13:00,
2013-01-14 15:23:00,-999.0,-99.9,30.15,South,190,6.0,9.0,-999,-99.99,,,-99.99,,2013-01-14 20:23:00,
2013-01-14 15:34:00,-999.0,-99.9,30.15,South,184,7.0,8.0,-999,-99.99,,,-99.99,,2013-01-14 20:34:00,
2013-01-14 15:43:00,-999.0,-99.9,30.15,SSW,197,6.0,7.0,-999,-99.99,,,-99.99,,2013-01-14 20:43:00,
2013-01-14 15:53:00,63.0,-99.9,30.16,North,-999,-999.0,-999.0,-999,-99.99,,,-99.99,,2013-01-14 20:53:00,
2013-01-14 16:03:00,-999.0,-99.9,30.16,South,185,7.0,8.0,-999,-99.99,,,-99.99,,2013-01-14 21:03:00,
2013-01-14 16:13:00,-999.0,-99.9,30.16,South,186,7.0,9.0,-999,-99.99,,,-99.99,,2013-01-14 21:13:00,
2013-01-14 16:23:00,-999.0,-99.9,30.16,South,186,7.0,9.0,-999,-99.99,,,-99.99,,2013-01-14 21:23:00,
2013-01-14 16:43:00,-999.0,-99.9,30.16,South,188,9.0,10.0,-999,-99.99,,,-99.99,,2013-01-14 21:43:00,
2013-01-14 16:53:00,-999.0,-99.9,30.16,South,186,8.0,9.0,-999,-99.99,,,-99.99,,2013-01-14 21:53:00,
2013-01-14 17:03:00,62.0,-99.9,30.16,North,-999,-999.0,-999.0,-999,-99.99,,,-99.99,,2013-01-14 22:03:00,
2013-01-14 17:13:00,-999.0,-99.9,30.17,South,187,7.0,9.0,-999,-99.99,,,-99.99,,2013-01-14 22:13:00,
2013-01-14 17:23:00,62.0,-99.9,30.17,North,-999,-999.0,-999.0,-999,-99.99,,,-99.99,,2013-01-14 22:23:00,
2013-01-14 17:33:00,-999.0,-99.9,30.17,South,178,8.0,10.0,-999,-99.99,,,-99.99,,2013-01-14 22:33:00,
2013-01-14 17:43:00,-999.0,-99.9,30.17,South,183,7.0,9.0,-999,-99.99,,,-99.99,,2013-01-14 22:43:00,
2013-01-14 17:53:00,61.0,-99.9,30.17,North,-999,-999.0,-999.0,-999,-99.99,,,-99.99,,2013-01-14 22:53:00,
2013-01-14 18:03:00,61.0,-99.9,30.17,North,-999,-999.0,-999.0,-999,-99.99,,,-99.99,,2013-01-14 23:03:00,
2013-01-14 18:12:00,-999.0,-99.9,30.17,South,175,9.0,11.0,-999,-99.99,,,-99.99,,2013-01-14 23:12:00,
2013-01-14 18:23:00,-999.0,-99.9,30.18,South,184,9.0,10.0,-999,-99.99,,,-99.99,,2013-01-14 23:23:00,
2013-01-14 18:33:00,60.0,-99.9,30.18,North,-999,-999.0,-999.0,-999,-99.99,,,-99.99,,2013-01-14 23:33:00,
2013-01-14 18:43:00,60.0,-99.9,30.18,North,-999,-999.0,-999.0,-999,-99.99,,,-99.99,,2013-01-14 23:43:00,
2013-01-14 18:53:00,60.0,-99.9,30.18,North,-999,-999.0,-999.0,-999,-99.99,,,-99.99,,2013-01-14 23:53:00,
2013-01-14 19:03:00,-999.0,-99.9,30.19,South,189,9.0,11.0,-999,-99.99,,,-99.99,,2013-01-15 00:03:00,
2013-01-14 19:12:00,61.0,-99.9,30.19,South,189,9.0,11.0,-999,-99.99,,,-99.99,,2013-01-15 00:12:00,
2013-01-14 19:23:00,61.0,-99.9,30.19,North,-999,-999.0,-999.0,-999,-99.99,,,-99.99,,2013-01-15 00:23:00,
2013-01-14 19:33:00,61.0,-99.9,30.19,North,-999,-999.0,-999.0,-999,-99.99,,,-99.99,,2013-01-15 00:33:00,
2013-01-14 19:43:00,60.0,-99.9,30.19,North,-999,-999.0,-999.0,-999,-99.99,,,-99.99,,2013-01-15 00:43:00,
2013-01-14 19:53:00,-999.0,-99.9,30.18,South,188,10.0,10.0,-999,-99.99,,,-99.99,,2013-01-15 00:53:00,
2013-01-14 20:02:00,-999.0,-99.9,30.18,SSW,193,10.0,11.0,-999,-99.99,,,-99.99,,2013-01-15 01:02:00,
2013-01-14 20:12:00,62.0,-99.9,30.17,North,-999,-999.0,-999.0,-999,-99.99,,,-99.99,,2013-01-15 01:12:00,
2013-01-14 20:23:00,-999.0,-99.9,30.17,SSW,202,9.0,12.0,-999,-99.99,,,-99.99,,2013-01-15 01:23:00,
2013-01-14 20:33:00,-999.0,-99.9,30.17,SSW,198,10.0,12.0,-999,-99.99,,,-99.99,,2013-01-15 01:33:00,
2013-01-14 20:43:00,61.0,-99.9,30.17,North,-999,-999.0,-999.0,-999,-99.99,,,-99.99,,2013-01-15 01:43:00,
2013-01-14 20:53:00,61.0,-99.9,30.17,North,-999,-999.0,-999.0,-999,-99.99,,,-99.99,,2013-01-15 01:53:00,
2013-01-14 21:03:00,-999.0,-99.9,30.17,SSW,196,10.0,12.0,-999,-99.99,,,-99.99,,2013-01-15 02:03:00,
2013-01-14 21:12:00,-999.0,-99.9,30.17,SSW,194,10.0,12.0,-999,-99.99,,,-99.99,,2013-01-15 02:12:00,
2013-01-14 21:23:00,59.0,-99.9,30.16,North,-999,-999.0,-999.0,-999,-99.99,,,-99.99,,2013-01-15 02:23:00,
2013-01-14 21:33:00,61.0,-99.9,30.16,North,-999,-999.0,-999.0,-999,-99.99,,,-99.99,,2013-01-15 02:33:00,
2013-01-14 21:43:00,61.0,-99.9,30.16,SSW,204,10.0,13.0,-999,-99.99,,,-99.99,,2013-01-15 02:43:00,
2013-01-14 21:53:00,-999.0,-99.9,30.16,SSW,199,10.0,13.0,-999,-99.99,,,-99.99,,2013-01-15 02:53:00,
2013-01-14 22:03:00,-999.0,-99.9,30.16,SSW,194,11.0,12.0,-999,-99.99,,,-99.99,,2013-01-15 03:03:00,
2013-01-14 22:12:00,-999.0,-99.9,30.16,SSW,199,11.0,12.0,-999,-99.99,,,-99.99,,2013-01-15 03:12:00,
2013-01-14 22:22:00,-999.0,-99.9,30.16,SSW,200,11.0,14.0,-999,-99.99,,,-99.99,,2013-01-15 03:22:00,
2013-01-14 22:33:00,-999.0,-99.9,30.16,SSW,202,10.0,14.0,-999,-99.99,,,-99.99,,2013-01-15 03:33:00,
2013-01-14 22:43:00,-999.0,-99.9,30.16,SSW,202,9.0,13.0,-999,-99.99,,,-99.99,,2013-01-15 03:43:00,
2013-01-14 22:53:00,61.0,-99.9,30.17,North,-999,-999.0,-999.0,-999,-99.99,,,-99.99,,2013-01-15 03:53:00,
2013-01-14 23:03:00,62.0,-99.9,30.17,North,-999,-999.0,-999.0,-999,-99.99,,,-99.99,,2013-01-15 04:03:00,
2013-01-14 23:12:00,63.0,-99.9,30.17,North,-999,-999.0,-999.0,-999,-99.99,,,-99.99,,2013-01-15 04:12:00,
2013-01-14 23:22:00,-999.0,-99.9,30.17,SW,214,9.0,13.0,-999,-99.99,,,-99.99,,2013-01-15 04:22:00,
2013-01-14 23:33:00,61.0,-99.9,30.17,North,-999,-999.0,-999.0,-999,-99.99,,,-99.99,,2013-01-15 04:33:00,
2013-01-14 23:43:00,-999.0,-99.9,30.17,SW,217,7.0,9.0,-999,-99.99,,,-99.99,,2013-01-15 04:43:00,
2013-01-14 23:53:00,-999.0,-99.9,30.17,SW,215,10.0,14.0,-999,-99.99,,,-99.99,,2013-01-15 04:53:00,